When you browse on this site, cookies collect data to enhance your experience and personalize the content and advertising you see.
Visit our Privacy Policy to learn more. By continuing to use the site, you agree to this use of cookies and data.
  • In United Kingdom
  • List of Countries
  • For 7 days
  • Water Temperature
  • Weather Map
  • Weather Widgets
  • user-avatar
    Login

    Hourly Weather Bukowsko

    Today, 31 May, Sunday

    Time Temperature Precipitation Wind Pressure Humidity
    00:00 +7°C° 1.7 mm 6 mps 720 mmHg 98%
    01:00 +6°C° 0 mm 7 mps 719 mmHg 96%
    02:00 +6°C° 3 mm 7 mps 719 mmHg 97%
    03:00 +6°C° 3 mm 7 mps 718 mmHg 97%
    04:00 +5°C° 3 mm 7 mps 718 mmHg 97%
    05:00 +7°C° 1.6 mm 6 mps 718 mmHg 98%
    06:00 +7°C° 1.6 mm 5 mps 718 mmHg 98%
    07:00 +7°C° 0 mm 5 mps 718 mmHg 97%
    08:00 +8°C° 0.3 mm 4 mps 719 mmHg 97%
    09:00 +9°C° 0.3 mm 3 mps 719 mmHg 97%
    10:00 +10°C° 0.3 mm 2 mps 719 mmHg 97%
    11:00 +12°C° 0.3 mm 2 mps 720 mmHg 96%
    12:00 +12°C° 0.3 mm 2 mps 720 mmHg 95%
    13:00 +13°C° 0.3 mm 2 mps 721 mmHg 94%
    14:00 +12°C° 0.6 mm 3 mps 721 mmHg 94%
    15:00 +12°C° 0.6 mm 3 mps 721 mmHg 95%
    16:00 +13°C° 0.6 mm 4 mps 721 mmHg 95%
    17:00 +12°C° 0.6 mm 4 mps 722 mmHg 96%
    18:00 +11°C° 0.6 mm 4 mps 722 mmHg 97%
    19:00 +11°C° 0.6 mm 4 mps 722 mmHg 98%
    20:00 +11°C° 0.6 mm 4 mps 722 mmHg 98%
    21:00 +10°C° 0.6 mm 4 mps 723 mmHg 98%
    22:00 +10°C° 0.6 mm 4 mps 723 mmHg 98%
    23:00 +10°C° 0.7 mm 4 mps 723 mmHg 98%

    Tomorrow, 1 June, Monday

    Time Temperature Precipitation Wind Pressure Humidity
    00:00 +10°C° 0.7 mm 4 mps 724 mmHg 98%
    01:00 +10°C° 0.7 mm 4 mps 724 mmHg 98%
    02:00 +8°C° 0.1 mm 4 mps 724 mmHg 98%
    03:00 +9°C° 0.1 mm 3 mps 724 mmHg 98%
    04:00 +9°C° 0.1 mm 3 mps 724 mmHg 98%
    05:00 +9°C° 0 mm 3 mps 724 mmHg 97%
    06:00 +9°C° 0 mm 3 mps 725 mmHg 96%
    07:00 +9°C° 0 mm 3 mps 725 mmHg 96%
    08:00 +10°C° 0.2 mm 4 mps 725 mmHg 90%
    09:00 +10°C° 0.2 mm 5 mps 725 mmHg 85%
    10:00 +13°C° 0.2 mm 5 mps 725 mmHg 80%
    11:00 +13°C° 0.1 mm 6 mps 725 mmHg 71%
    12:00 +14°C° 0.1 mm 6 mps 725 mmHg 62%
    13:00 +14°C° 0.1 mm 6 mps 725 mmHg 53%
    14:00 +14°C° 0.1 mm 6 mps 725 mmHg 58%
    15:00 +13°C° 0.1 mm 5 mps 725 mmHg 63%
    16:00 +12°C° 0.1 mm 5 mps 725 mmHg 67%
    17:00 +10°C° 0.1 mm 5 mps 725 mmHg 73%
    18:00 +10°C° 0.1 mm 4 mps 725 mmHg 79%
    19:00 +9°C° 0.1 mm 3 mps 725 mmHg 84%
    20:00 +7°C° 0.1 mm 3 mps 725 mmHg 88%
    21:00 +6°C° 0.1 mm 2 mps 725 mmHg 91%
    22:00 +5°C° 0.1 mm 2 mps 725 mmHg 94%
    23:00 +5°C° 0 mm 2 mps 725 mmHg 95%

    Day after tomorrow, 2 June, Tuesday

    Time Temperature Precipitation Wind Pressure Humidity
    00:00 +5°C° 0 mm 1 mps 724 mmHg 95%
    01:00 +5°C° 0 mm 1 mps 724 mmHg 96%
    02:00 +5°C° 0 mm 1 mps 724 mmHg 96%
    03:00 +5°C° 0 mm 1 mps 723 mmHg 97%
    04:00 +5°C° 0 mm 1 mps 723 mmHg 97%
    05:00 +6°C° 0 mm 2 mps 723 mmHg 93%
    06:00 +7°C° 0 mm 3 mps 723 mmHg 88%
    07:00 +8°C° 0 mm 4 mps 723 mmHg 84%
    08:00 +10°C° 0.1 mm 4 mps 723 mmHg 75%
    09:00 +10°C° 0.1 mm 5 mps 723 mmHg 65%
    10:00 +13°C° 0.1 mm 6 mps 723 mmHg 56%
    11:00 +13°C° 0.1 mm 6 mps 722 mmHg 56%
    12:00 +14°C° 0.1 mm 6 mps 722 mmHg 57%
    13:00 +14°C° 0.1 mm 5 mps 722 mmHg 57%
    14:00 +13°C° 0.3 mm 5 mps 721 mmHg 63%
    15:00 +13°C° 0.3 mm 5 mps 721 mmHg 69%
    16:00 +12°C° 0.3 mm 5 mps 721 mmHg 75%
    17:00 +11°C° 0.3 mm 4 mps 720 mmHg 81%
    18:00 +10°C° 0.3 mm 3 mps 720 mmHg 87%
    19:00 +9°C° 0.3 mm 2 mps 720 mmHg 93%
    20:00 +8°C° 0.2 mm 2 mps 720 mmHg 94%
    21:00 +8°C° 0.2 mm 2 mps 720 mmHg 95%
    22:00 +8°C° 0.2 mm 1 mps 720 mmHg 96%
    23:00 +7°C° 0.6 mm 2 mps 720 mmHg 97%

    3 June, Wednesday

    Time Temperature Precipitation Wind Pressure Humidity
    00:00 +7°C° 0.6 mm 2 mps 719 mmHg 97%
    01:00 +7°C° 0.6 mm 3 mps 719 mmHg 97%
    02:00 +7°C° 0.6 mm 3 mps 719 mmHg 97%
    03:00 +7°C° 0.6 mm 3 mps 719 mmHg 97%
    04:00 +7°C° 0.6 mm 3 mps 719 mmHg 98%
    05:00 +7°C° 0.5 mm 3 mps 719 mmHg 97%
    06:00 +8°C° 0.5 mm 3 mps 719 mmHg 97%
    07:00 +8°C° 0.5 mm 3 mps 719 mmHg 96%
    08:00 +8°C° 0.4 mm 3 mps 719 mmHg 96%
    09:00 +8°C° 0.4 mm 3 mps 719 mmHg 96%
    10:00 +9°C° 0.4 mm 3 mps 719 mmHg 96%
    11:00 +9°C° 0.2 mm 3 mps 719 mmHg 95%
    12:00 +10°C° 0.2 mm 3 mps 718 mmHg 93%
    13:00 +10°C° 0.2 mm 3 mps 718 mmHg 91%
    14:00 +11°C° 0.1 mm 3 mps 718 mmHg 85%
    15:00 +12°C° 0.1 mm 3 mps 718 mmHg 80%
    16:00 +13°C° 0.1 mm 3 mps 718 mmHg 74%
    17:00 +12°C° 0.2 mm 3 mps 718 mmHg 80%
    18:00 +12°C° 0.2 mm 2 mps 718 mmHg 87%
    19:00 +11°C° 0.2 mm 1 mps 718 mmHg 93%
    20:00 +10°C° 0 mm 1 mps 718 mmHg 94%
    21:00 +10°C° 0 mm 1 mps 718 mmHg 94%
    22:00 +9°C° 0 mm 1 mps 719 mmHg 95%
    23:00 +9°C° 0 mm 1 mps 718 mmHg 95%

    4 June, Thursday

    Time Temperature Precipitation Wind Pressure Humidity
    00:00 +9°C° 0 mm 1 mps 718 mmHg 95%
    01:00 +9°C° 0 mm 1 mps 718 mmHg 96%
    02:00 +8°C° 0.1 mm 2 mps 718 mmHg 96%
    03:00 +7°C° 0.1 mm 2 mps 718 mmHg 96%
    04:00 +7°C° 0.1 mm 2 mps 718 mmHg 96%
    05:00 +9°C° 0 mm 2 mps 718 mmHg 94%
    06:00 +10°C° 0 mm 2 mps 718 mmHg 91%
    07:00 +13°C° 0 mm 2 mps 718 mmHg 89%
    08:00 +13°C° 0 mm 3 mps 718 mmHg 80%
    09:00 +16°C° 0 mm 3 mps 719 mmHg 72%
    10:00 +17°C° 0 mm 3 mps 719 mmHg 63%
    11:00 +18°C° 0.1 mm 4 mps 718 mmHg 62%
    12:00 +19°C° 0.1 mm 4 mps 718 mmHg 61%
    13:00 +19°C° 0.1 mm 4 mps 718 mmHg 60%
    14:00 +19°C° 0.2 mm 4 mps 717 mmHg 65%
    15:00 +19°C° 0.2 mm 4 mps 717 mmHg 70%
    16:00 +19°C° 0.2 mm 4 mps 717 mmHg 76%
    17:00 +18°C° 0.4 mm 4 mps 717 mmHg 80%
    18:00 +17°C° 0.4 mm 4 mps 717 mmHg 85%
    19:00 +15°C° 0.4 mm 4 mps 716 mmHg 90%
    20:00 +15°C° 0.2 mm 4 mps 716 mmHg 90%
    21:00 +16°C° 0.2 mm 3 mps 716 mmHg 89%
    22:00 +14°C° 0.2 mm 3 mps 716 mmHg 89%
    23:00 +14°C° 0.1 mm 4 mps 715 mmHg 90%

    5 June, Friday

    Time Temperature Precipitation Wind Pressure Humidity
    00:00 +14°C° 0.1 mm 4 mps 715 mmHg 91%
    01:00 +14°C° 0.1 mm 4 mps 715 mmHg 92%
    02:00 +14°C° 1.4 mm 3 mps 715 mmHg 94%
    03:00 +13°C° 1.4 mm 3 mps 715 mmHg 96%
    04:00 +14°C° 1.4 mm 2 mps 715 mmHg 98%
    05:00 +13°C° 0.8 mm 3 mps 715 mmHg 96%
    06:00 +13°C° 0.8 mm 3 mps 716 mmHg 95%
    07:00 +13°C° 0.8 mm 3 mps 716 mmHg 93%
    08:00 +14°C° 0.1 mm 3 mps 717 mmHg 87%
    09:00 +17°C° 0.1 mm 3 mps 718 mmHg 82%
    10:00 +18°C° 0.1 mm 4 mps 718 mmHg 76%
    11:00 +18°C° 0.6 mm 4 mps 718 mmHg 76%
    12:00 +19°C° 0.6 mm 4 mps 718 mmHg 75%
    13:00 +20°C° 0.6 mm 4 mps 718 mmHg 74%
    14:00 +19°C° 0.5 mm 4 mps 718 mmHg 77%
    15:00 +18°C° 0.5 mm 3 mps 719 mmHg 80%
    16:00 +18°C° 0.5 mm 3 mps 719 mmHg 82%
    17:00 +16°C° 0.1 mm 2 mps 719 mmHg 84%
    18:00 +15°C° 0.1 mm 1 mps 719 mmHg 85%
    19:00 +14°C° 0.1 mm 1 mps 719 mmHg 86%
    20:00 +13°C° 0 mm 1 mps 720 mmHg 86%
    21:00 +11°C° 0 mm 0 mps 720 mmHg 86%
    22:00 +10°C° 0 mm 0 mps 720 mmHg 87%
    23:00 +11°C° 0 mm 1 mps 720 mmHg 87%
    Show more